BHE1500 ZSNJ-ZUTF

Flight info

Callsign BHE1500
Flight time N/A
Altitude 34100
Route SUNBO W163 HFE W50 XSH W80 AKOPI AKOPI5E
Aircraft B738/M-SDE2E3FGHIRWXY/LB1

Departure

Time 2026-05-09 08:31
Airport Nanjing Lukou International Airport (ZSNJ)

Arrival

Time N/A
Airport Chengdu Tianfu International Airport (ZUTF)
Time Latitude Longitude Altitude Speed Heading
2026-05-09 08:16 31.73158 118.87228 56 ft 0 kts 328°
2026-05-09 08:21 31.73153 118.87232 56 ft 2 kts 328°
2026-05-09 08:21 31.73140 118.87241 56 ft 2 kts 328°
2026-05-09 08:21 31.73128 118.87251 56 ft 2 kts 328°
2026-05-09 08:22 31.73115 118.87260 56 ft 2 kts 328°
2026-05-09 08:22 31.73102 118.87270 56 ft 2 kts 330°
2026-05-09 08:22 31.73088 118.87275 56 ft 2 kts 359°
2026-05-09 08:22 31.73073 118.87273 56 ft 2 kts 20°
2026-05-09 08:23 31.73060 118.87264 56 ft 2 kts 42°
2026-05-09 08:23 31.73053 118.87256 56 ft 0 kts 56°
2026-05-09 08:23 31.73050 118.87248 56 ft 0 kts 58°
2026-05-09 08:24 31.73050 118.87249 56 ft 0 kts 58°
2026-05-09 08:25 31.73052 118.87253 56 ft 2 kts 58°
2026-05-09 08:25 31.73065 118.87278 56 ft 4 kts 59°
2026-05-09 08:25 31.73089 118.87324 56 ft 8 kts 59°
2026-05-09 08:25 31.73091 118.87387 56 ft 6 kts 114°
2026-05-09 08:26 31.73073 118.87430 56 ft 5 kts 110°
2026-05-09 08:26 31.73074 118.87470 56 ft 5 kts 71°
2026-05-09 08:26 31.73120 118.87563 56 ft 6 kts 58°
2026-05-09 08:27 31.73146 118.87611 56 ft 7 kts 58°
2026-05-09 08:27 31.73174 118.87664 56 ft 7 kts 58°
2026-05-09 08:27 31.73204 118.87721 56 ft 8 kts 58°
2026-05-09 08:27 31.73237 118.87784 56 ft 9 kts 59°
2026-05-09 08:28 31.73269 118.87849 56 ft 8 kts 71°
2026-05-09 08:28 31.73238 118.87896 56 ft 7 kts 149°
2026-05-09 08:28 31.73195 118.87927 56 ft 6 kts 144°
2026-05-09 08:28 31.73171 118.87945 56 ft 0 kts 149°
2026-05-09 08:29 31.73166 118.87947 56 ft 3 kts 148°
2026-05-09 08:29 31.73126 118.87977 56 ft 7 kts 148°
2026-05-09 08:29 31.73078 118.88007 56 ft 7 kts 170°
2026-05-09 08:30 31.73045 118.87981 56 ft 0 kts 237°
2026-05-09 08:30 31.73031 118.87957 56 ft 11 kts 237°
2026-05-09 08:30 31.72949 118.87804 56 ft 46 kts 237°
2026-05-09 08:30 31.72610 118.87167 57 ft 134 kts 239°
2026-05-09 08:31 31.72017 118.86060 497 ft 170 kts 236°
2026-05-09 08:31 31.71406 118.84893 1411 ft 177 kts 234°
2026-05-09 08:31 31.70759 118.83644 2051 ft 186 kts 235°
2026-05-09 08:31 31.70054 118.82307 2538 ft 205 kts 235°
2026-05-09 08:32 31.69263 118.80801 3078 ft 224 kts 235°
2026-05-09 08:32 31.68409 118.79225 3715 ft 239 kts 236°
2026-05-09 08:32 31.67254 118.75396 5054 ft 270 kts 268°
2026-05-09 08:33 31.67294 118.73211 5991 ft 271 kts 271°
2026-05-09 08:33 31.67378 118.71029 6988 ft 270 kts 271°
2026-05-09 08:33 31.67429 118.68802 7732 ft 279 kts 270°
2026-05-09 08:33 31.67435 118.66524 8642 ft 281 kts 269°
2026-05-09 08:34 31.67415 118.64249 9476 ft 285 kts 269°
2026-05-09 08:34 31.67386 118.61924 10271 ft 288 kts 269°
2026-05-09 08:34 31.67349 118.59500 10789 ft 304 kts 269°
2026-05-09 08:34 31.67307 118.56970 11266 ft 320 kts 269°
2026-05-09 08:35 31.67263 118.54298 11775 ft 335 kts 270°
2026-05-09 08:35 31.67219 118.51586 12516 ft 340 kts 270°
2026-05-09 08:35 31.67175 118.48788 13308 ft 345 kts 270°
2026-05-09 08:35 31.67132 118.45956 14100 ft 349 kts 270°
2026-05-09 08:36 31.67088 118.43143 14979 ft 350 kts 271°
2026-05-09 08:36 31.67044 118.40303 15822 ft 353 kts 271°
2026-05-09 08:36 31.66999 118.37409 16661 ft 355 kts 271°
2026-05-09 08:36 31.66952 118.34520 17545 ft 354 kts 270°
2026-05-09 08:37 31.66906 118.31667 18309 ft 357 kts 270°
2026-05-09 08:37 31.66858 118.28732 19067 ft 359 kts 270°
2026-05-09 08:37 31.66811 118.25845 19789 ft 361 kts 270°
2026-05-09 08:37 31.66761 118.22900 20566 ft 361 kts 270°
2026-05-09 08:38 31.66711 118.19994 21329 ft 361 kts 270°
2026-05-09 08:38 31.66649 118.17054 22031 ft 362 kts 269°
2026-05-09 08:38 31.66468 118.14093 22718 ft 363 kts 266°
2026-05-09 08:38 31.66190 118.11140 23292 ft 367 kts 265°
2026-05-09 08:39 31.65873 118.08167 23901 ft 370 kts 264°
2026-05-09 08:39 31.65552 118.05177 24581 ft 370 kts 264°
2026-05-09 08:39 31.65241 118.02194 25118 ft 374 kts 264°
2026-05-09 08:39 31.64936 117.99200 25760 ft 374 kts 264°
2026-05-09 08:40 31.64632 117.96149 26337 ft 376 kts 265°
2026-05-09 08:40 31.64331 117.93091 26852 ft 378 kts 265°
2026-05-09 08:40 31.64034 117.90061 27401 ft 380 kts 265°
2026-05-09 08:40 31.63731 117.86965 27919 ft 382 kts 265°
2026-05-09 08:41 31.63429 117.83877 28370 ft 385 kts 265°
2026-05-09 08:41 31.63125 117.80762 28942 ft 385 kts 265°
2026-05-09 08:41 31.62818 117.77631 29359 ft 389 kts 265°
2026-05-09 08:41 31.62510 117.74489 29848 ft 390 kts 265°
2026-05-09 08:42 31.62201 117.71348 30321 ft 392 kts 265°
2026-05-09 08:42 31.61885 117.68132 30759 ft 394 kts 265°
2026-05-09 08:42 31.61657 117.64956 31237 ft 395 kts 269°
2026-05-09 08:42 31.61695 117.61777 31747 ft 393 kts 275°
2026-05-09 08:43 31.62088 117.58574 32465 ft 389 kts 281°
2026-05-09 08:43 31.62797 117.55547 32962 ft 389 kts 287°
2026-05-09 08:43 31.63847 117.52619 33613 ft 386 kts 294°
2026-05-09 08:43 31.65186 117.49888 34035 ft 387 kts 300°